Location: Mainz-Finthen
(49.9906°N, 8.1713°E)
Time: 07:11:52
(UTC+00:00)

N. Korean satellite - Pass Details

Date: 30 November 2022
Orbit: 407 x 442 km, 97.3° (Epoch: 04 February)

Event Time Altitude Azimuth Distance (km) Brightness Sun altitude
Rises 04:31:21 0° 18° (NNE) 2,530 10.4 -23.4°
Reaches altitude 10° 04:33:29 10° 24° (NNE) 1,646 9.4 -23.1°
Maximum altitude 04:36:54 45° 99° (E) 649 7.6 -22.6°
Drops below altitude 10° 04:40:16 10° 174° (S) 1,618 9.4 -22.0°
Sets 04:42:21 0° 180° (S) 2,481 10.3 -21.7°
